date:2026-05-13T19:49:36+00:00
validtle:1
satid:64290
launchyear:2025
epoch:26102.13938411
epochday:102
tleage:31
tleclassification:U
active:0
name:SXM-10
meananomly:116.8772
meanmotion:1.0027
rightascension:0.0000
declination:0.0000
semimajoraxis:42164.698562723
altitudeatperigee:35776
altitudeatapogee:35797
inclination:0.007
eccentricity:0.0002448
argumentofperigree:1.956
nickname:SXM-10
idesg:25122A  
cosparid:2025-122A
altkm:35790.732351136
velkms:3.0743763221706
velkmh:11068
onumepoch:302
onumnow:334.59
otype:98
otypedesc:Inactive TLE
status:98
timestamp:2026-04-12T03:20:43+00:00
nowjuliandate:2461174.3261166
nowepochdate:26133.8261111111
TLE:
SXM-10
1 64290U 25122A   26102.13938411 -.00000015  00000+0  00000+0 0  9999
2 64290   0.0070  15.5317 0002448   1.9560 116.8772  1.00271949  3021